Location: Rottenacker
(48.2350°N, 9.6886°E)
Time: 04:38:36
(UTC+01:00)

ISS - Pass Details

Date: 10 February 2018
Orbit: 402 x 407 km, 51.6° (Epoch: 25 February)

Event Time Altitude Azimuth Distance (km) Brightness Sun altitude
Rises 18:39:36 0° 291° (WNW) 2,321 1.1 -11.2°
Reaches altitude 10° 18:41:43 10° 287° (WNW) 1,460 0.1 -11.6°
Maximum altitude 18:44:54 52° 210° (SSW) 509 -3.1 -12.1°
Enters shadow 18:47:56 11° 133° (SE) 1,393 -1.5 -12.6°
